| time (UTC) | temp F | wind direction | speed MPH | gust MPH | rain 1hr in | rain 24hr in | rain mn in | humidity % | barometer mb |
| 20260505053029 | 70 | 139 | 0.0 | 2.0 | 0.00 | 0.00 | 0.00 | 81 | 1014.9 |
| 20260505052532 | 70 | 97 | 0.0 | 3.0 | 0.00 | 0.00 | 0.00 | 81 | 1014.9 |
| 20260505052029 | 70 | 94 | 1.0 | 3.0 | 0.00 | 0.00 | 0.00 | 81 | 1014.8 |
| 20260505051528 | 70 | 148 | 0.0 | 2.0 | 0.00 | 0.00 | 0.00 | 80 | 1014.8 |
| 20260505051028 | 70 | 153 | 0.0 | 3.0 | 0.00 | 0.00 | 0.00 | 80 | 1014.8 |
| 20260505050531 | 70 | 153 | 0.0 | 3.0 | 0.00 | 0.00 | 0.00 | 80 | 1014.9 |
| 20260505041538 | 71 | 142 | 0.0 | 4.0 | 0.00 | 0.00 | 0.00 | 79 | 1015.2 |
| 20260505041020 | 72 | 105 | 1.0 | 3.0 | 0.00 | 0.00 | 0.00 | 78 | 1015.1 |
| 20260505040520 | 72 | 103 | 0.0 | 3.0 | 0.00 | 0.00 | 0.00 | 78 | 1015.3 |
| 20260505040019 | 72 | 128 | 0.0 | 2.0 | 0.00 | 0.00 | 0.00 | 78 | 1015.2 |
| 20260505035518 | 72 | 128 | 0.0 | 4.0 | 0.00 | 0.00 | 0.00 | 77 | 1015.3 |
| 20260505035018 | 72 | 116 | 0.0 | 3.0 | 0.00 | 0.00 | 0.00 | 77 | 1015.3 |
| 20260505034518 | 72 | 123 | 1.0 | 3.0 | 0.00 | 0.00 | 0.00 | 77 | 1015.3 |
| 20260505034022 | 72 | 120 | 0.0 | 3.0 | 0.00 | 0.00 | 0.00 | 77 | 1015.3 |
| 20260505033518 | 72 | 98 | 0.0 | 4.0 | 0.00 | 0.00 | 0.00 | 77 | 1015.3 |
| 20260505033018 | 73 | 120 | 1.0 | 4.0 | 0.00 | 0.00 | 0.00 | 76 | 1015.2 |
| 20260505032521 | 73 | 119 | 0.0 | 3.0 | 0.00 | 0.00 | 0.00 | 76 | 1015.3 |
| 20260505032019 | 73 | 116 | 0.0 | 3.0 | 0.00 | 0.00 | 0.00 | 76 | 1015.2 |
| 20260505031518 | 73 | 136 | 0.0 | 4.0 | 0.00 | 0.00 | 0.00 | 76 | 1015.4 |
| 20260505031017 | 73 | 141 | 0.0 | 4.0 | 0.00 | 0.00 | 0.00 | 76 | 1015.4 |
| 20260505030517 | 73 | 129 | 1.0 | 4.0 | 0.00 | 0.00 | 0.00 | 76 | 1015.4 |
| 20260505030017 | 74 | 125 | 0.0 | 2.0 | 0.00 | 0.00 | 0.00 | 76 | 1015.4 |
| 20260505025517 | 74 | 133 | 0.0 | 4.0 | 0.00 | 0.00 | 0.00 | 75 | 1015.6 |
| 20260505025018 | 74 | 148 | 1.0 | 4.0 | 0.00 | 0.00 | 0.00 | 75 | 1015.3 |
| 20260505024521 | 74 | 132 | 0.0 | 7.0 | 0.00 | 0.00 | 0.00 | 75 | 1015.2 |
| 20260505024017 | 74 | 141 | 0.0 | 7.0 | 0.00 | 0.00 | 0.00 | 75 | 1015.1 |
| 20260505023516 | 74 | 126 | 2.0 | 8.0 | 0.00 | 0.00 | 0.00 | 74 | 1015.1 |
| 20260505023017 | 74 | 109 | 2.0 | 8.0 | 0.00 | 0.00 | 0.00 | 74 | 1015.0 |
| 20260505022516 | 75 | 121 | 2.0 | 5.0 | 0.00 | 0.00 | 0.00 | 74 | 1015.1 |
| 20260505022017 | 75 | 124 | 2.0 | 5.0 | 0.00 | 0.00 | 0.00 | 74 | 1015.1 |
| 20260505021516 | 75 | 142 | 1.0 | 6.0 | 0.00 | 0.00 | 0.00 | 73 | 1015.1 |
| 20260505021015 | 75 | 133 | 2.0 | 5.0 | 0.00 | 0.00 | 0.00 | 73 | 1015.1 |
| 20260505020515 | 75 | 137 | 1.0 | 5.0 | 0.00 | 0.00 | 0.00 | 73 | 1015.1 |
| 20260505020018 | 75 | 134 | 1.0 | 4.0 | 0.00 | 0.00 | 0.00 | 72 | 1015.0 |
| 20260505015517 | 75 | 107 | 1.0 | 7.0 | 0.00 | 0.00 | 0.00 | 72 | 1015.0 |
| 20260505015015 | 75 | 107 | 2.0 | 7.0 | 0.00 | 0.00 | 0.00 | 72 | 1014.9 |
| 20260505014516 | 76 | 130 | 1.0 | 8.0 | 0.00 | 0.00 | 0.00 | 72 | 1014.9 |
| 20260505014014 | 76 | 128 | 3.0 | 8.0 | 0.00 | 0.00 | 0.00 | 72 | 1014.8 |
| 20260505013517 | 76 | 129 | 2.0 | 7.0 | 0.00 | 0.00 | 0.00 | 72 | 1014.7 |
| 20260505013019 | 76 | 122 | 2.0 | 8.0 | 0.00 | 0.00 | 0.00 | 71 | 1014.6 |
| 20260505012515 | 76 | 125 | 1.0 | 8.0 | 0.00 | 0.00 | 0.00 | 71 | 1014.6 |
| 20260505012014 | 76 | 87 | 4.0 | 9.0 | 0.00 | 0.00 | 0.00 | 71 | 1014.6 |
| 20260505011521 | 76 | 132 | 4.0 | 9.0 | 0.00 | 0.00 | 0.00 | 70 | 1014.7 |
| 20260505011016 | 77 | 63 | 3.0 | 9.0 | 0.00 | 0.00 | 0.00 | 70 | 1014.4 |
| 20260505010513 | 77 | 132 | 3.0 | 8.0 | 0.00 | 0.00 | 0.00 | 70 | 1014.3 |
| 20260505010014 | 77 | 138 | 4.0 | 9.0 | 0.00 | 0.00 | 0.00 | 69 | 1014.4 |
| 20260505005513 | 77 | 126 | 2.0 | 10.0 | 0.00 | 0.00 | 0.00 | 69 | 1014.4 |
| 20260505005013 | 77 | 87 | 3.0 | 10.0 | 0.00 | 0.00 | 0.00 | 69 | 1014.4 |
| 20260505004522 | 78 | 131 | 2.0 | 8.0 | 0.00 | 0.00 | 0.00 | 68 | 1014.4 |
| 20260505004012 | 78 | 105 | 2.0 | 11.0 | 0.00 | 0.00 | 0.00 | 68 | 1014.2 |
| 20260505003512 | 77 | 140 | 4.0 | 11.0 | 0.00 | 0.00 | 0.00 | 68 | 1014.0 |
| 20260505003012 | 78 | 108 | 2.0 | 7.0 | 0.00 | 0.00 | 0.00 | 68 | 1014.0 |
| 20260505002513 | 79 | 157 | 2.0 | 9.0 | 0.00 | 0.00 | 0.00 | 67 | 1014.1 |
| 20260505002011 | 79 | 144 | 1.0 | 9.0 | 0.00 | 0.00 | 0.00 | 66 | 1014.1 |
| 20260505001511 | 79 | 126 | 2.0 | 10.0 | 0.00 | 0.00 | 0.00 | 65 | 1013.9 |
| 20260505001010 | 80 | 127 | 2.0 | 10.0 | 0.00 | 0.00 | 0.00 | 65 | 1013.7 |
| 20260505000509 | 80 | 129 | 1.0 | 9.0 | 0.00 | 0.00 | 0.00 | 65 | 1013.5 |
| 20260505000015 | 80 | 151 | 2.0 | 9.0 | 0.00 | 0.00 | 0.00 | 64 | 1013.4 |
| 20260504235509 | 80 | 155 | 2.0 | 10.0 | 0.00 | 0.00 | 0.00 | 64 | 1013.3 |
| 20260504235008 | 80 | 138 | 2.0 | 10.0 | 0.00 | 0.00 | 0.00 | 64 | 1013.4 |
| 20260504234508 | 80 | 129 | 3.0 | 5.0 | 0.00 | 0.00 | 0.00 | 63 | 1013.3 |
| 20260504234008 | 81 | 143 | 2.0 | 8.0 | 0.00 | 0.00 | 0.00 | 63 | 1013.2 |
| 20260504233508 | 81 | 146 | 3.0 | 10.0 | 0.00 | 0.00 | 0.00 | 62 | 1013.1 |
| 20260504233007 | 81 | 100 | 5.0 | 10.0 | 0.00 | 0.00 | 0.00 | 61 | 1013.0 |
| 20260504232508 | 81 | 154 | 2.0 | 8.0 | 0.00 | 0.00 | 0.00 | 61 | 1013.1 |
| 20260504232007 | 82 | 118 | 2.0 | 8.0 | 0.00 | 0.00 | 0.00 | 61 | 1012.9 |
| 20260504231506 | 82 | 146 | 2.0 | 8.0 | 0.00 | 0.00 | 0.00 | 60 | 1013.0 |
| 20260504231007 | 82 | 122 | 0.0 | 7.0 | 0.00 | 0.00 | 0.00 | 61 | 1013.0 |
| 20260504230507 | 82 | 127 | 2.0 | 9.0 | 0.00 | 0.00 | 0.00 | 59 | 1012.9 |
| 20260504230012 | 82 | 132 | 4.0 | 9.0 | 0.00 | 0.00 | 0.00 | 59 | 1012.8 |
| 20260504225508 | 83 | 127 | 2.0 | 9.0 | 0.00 | 0.00 | 0.00 | 58 | 1012.8 |
| 20260504225006 | 83 | 126 | 3.0 | 11.0 | 0.00 | 0.00 | 0.00 | 58 | 1012.7 |
| 20260504224505 | 83 | 98 | 1.0 | 10.0 | 0.00 | 0.00 | 0.00 | 58 | 1012.8 |
| 20260504224005 | 83 | 172 | 3.0 | 10.0 | 0.00 | 0.00 | 0.00 | 57 | 1012.9 |
| 20260504223505 | 84 | 185 | 4.0 | 11.0 | 0.00 | 0.00 | 0.00 | 56 | 1013.1 |
| 20260504223005 | 84 | 159 | 4.0 | 12.0 | 0.00 | 0.00 | 0.00 | 56 | 1013.0 |
| 20260504222505 | 85 | 123 | 4.0 | 12.0 | 0.00 | 0.00 | 0.00 | 56 | 1012.8 |
| 20260504222007 | 84 | 132 | 2.0 | 7.0 | 0.00 | 0.00 | 0.00 | 56 | 1012.9 |
| 20260504221505 | 85 | 142 | 1.0 | 5.0 | 0.00 | 0.00 | 0.00 | 55 | 1013.0 |
| 20260504221003 | 85 | 147 | 1.0 | 9.0 | 0.00 | 0.00 | 0.00 | 56 | 1012.9 |
| 20260504220503 | 84 | 164 | 1.0 | 6.0 | 0.00 | 0.00 | 0.00 | 56 | 1012.9 |
| 20260504220004 | 85 | 26 | 1.0 | 8.0 | 0.00 | 0.00 | 0.00 | 55 | 1013.0 |
| 20260504215503 | 85 | 88 | 3.0 | 8.0 | 0.00 | 0.00 | 0.00 | 54 | 1013.0 |
| 20260504215006 | 85 | 121 | 2.0 | 8.0 | 0.00 | 0.00 | 0.00 | 53 | 1012.9 |
| 20260504214503 | 85 | 105 | 1.0 | 4.0 | 0.00 | 0.00 | 0.00 | 54 | 1012.8 |
| 20260504214002 | 85 | 126 | 2.0 | 4.0 | 0.00 | 0.00 | 0.00 | 53 | 1012.9 |
| 20260504213502 | 85 | 99 | 1.0 | 7.0 | 0.00 | 0.00 | 0.00 | 54 | 1013.0 |
| 20260504213005 | 85 | 137 | 2.0 | 8.0 | 0.00 | 0.00 | 0.00 | 53 | 1013.0 |
| 20260504212502 | 85 | 146 | 1.0 | 8.0 | 0.00 | 0.00 | 0.00 | 56 | 1013.1 |
| 20260504212000 | 85 | 123 | 4.0 | 8.0 | 0.00 | 0.00 | 0.00 | 54 | 1012.9 |
| 20260504211503 | 84 | 142 | 1.0 | 7.0 | 0.00 | 0.00 | 0.00 | 56 | 1013.1 |
| 20260504211101 | 84 | 151 | 1.0 | 7.0 | 0.00 | 0.00 | 0.00 | 55 | 1013.1 |
| 20260504210601 | 84 | 140 | 1.0 | 7.0 | 0.00 | 0.00 | 0.00 | 56 | 1013.0 |
| 20260504210100 | 84 | 127 | 1.0 | 10.0 | 0.00 | 0.00 | 0.00 | 53 | 1013.1 |
| 20260504205601 | 85 | 111 | 4.0 | 10.0 | 0.00 | 0.00 | 0.00 | 52 | 1013.1 |
| 20260504205059 | 84 | 151 | 1.0 | 6.0 | 0.00 | 0.00 | 0.00 | 54 | 1013.1 |
| 20260504204603 | 84 | 137 | 1.0 | 10.0 | 0.00 | 0.00 | 0.00 | 54 | 1013.2 |
| 20260504204059 | 85 | 175 | 4.0 | 10.0 | 0.00 | 0.00 | 0.00 | 52 | 1013.1 |
| 20260504203603 | 84 | 140 | 2.0 | 6.0 | 0.00 | 0.00 | 0.00 | 53 | 1013.2 |
| 20260504203121 | 84 | 127 | 2.0 | 8.0 | 0.00 | 0.00 | 0.00 | 53 | 1013.3 |
| 20260504202559 | 85 | 150 | 3.0 | 8.0 | 0.00 | 0.00 | 0.00 | 51 | 1013.3 |
| 20260504202057 | 85 | 123 | 1.0 | 9.0 | 0.00 | 0.00 | 0.00 | 53 | 1013.3 |
| 20260504201556 | 86 | 81 | 4.0 | 9.0 | 0.00 | 0.00 | 0.00 | 50 | 1013.3 |
| 20260504201057 | 86 | 152 | 3.0 | 11.0 | 0.00 | 0.00 | 0.00 | 51 | 1013.4 |
| 20260504200556 | 86 | 56 | 2.0 | 11.0 | 0.00 | 0.00 | 0.00 | 52 | 1013.4 |
| 20260504200055 | 85 | 79 | 1.0 | 10.0 | 0.00 | 0.00 | 0.00 | 54 | 1013.5 |
| 20260504195559 | 85 | 158 | 4.0 | 10.0 | 0.00 | 0.00 | 0.00 | 52 | 1013.7 |
| 20260504195055 | 85 | 103 | 2.0 | 8.0 | 0.00 | 0.00 | 0.00 | 52 | 1013.6 |
| 20260504194604 | 86 | 86 | 2.0 | 10.0 | 0.00 | 0.00 | 0.00 | 50 | 1013.7 |
| 20260504194054 | 86 | 142 | 3.0 | 10.0 | 0.00 | 0.00 | 0.00 | 50 | 1013.7 |
| 20260504193554 | 85 | 131 | 2.0 | 8.0 | 0.00 | 0.00 | 0.00 | 51 | 1013.8 |
| 20260504193101 | 85 | 184 | 4.0 | 9.0 | 0.00 | 0.00 | 0.00 | 52 | 1013.9 |
| 20260504192552 | 85 | 150 | 1.0 | 9.0 | 0.00 | 0.00 | 0.00 | 52 | 1013.9 |
| 20260504192052 | 85 | 200 | 3.0 | 10.0 | 0.00 | 0.00 | 0.00 | 51 | 1013.9 |
| 20260504191551 | 85 | 109 | 3.0 | 10.0 | 0.00 | 0.00 | 0.00 | 53 | 1013.9 |
| 20260504191051 | 85 | 126 | 2.0 | 7.0 | 0.00 | 0.00 | 0.00 | 53 | 1014.1 |
| 20260504190552 | 84 | 129 | 2.0 | 11.0 | 0.00 | 0.00 | 0.00 | 54 | 1014.1 |
| 20260504190105 | 84 | 103 | 5.0 | 14.0 | 0.00 | 0.00 | 0.00 | 54 | 1014.3 |
| 20260504185548 | 85 | 128 | 6.0 | 14.0 | 0.00 | 0.00 | 0.00 | 49 | 1014.5 |
| 20260504185048 | 86 | 86 | 2.0 | 8.0 | 0.00 | 0.00 | 0.00 | 52 | 1014.6 |
| 20260504184553 | 85 | 69 | 2.0 | 8.0 | 0.00 | 0.00 | 0.00 | 52 | 1014.8 |
| 20260504184046 | 85 | 123 | 2.0 | 8.0 | 0.00 | 0.00 | 0.00 | 52 | 1014.7 |
| 20260504183549 | 85 | 46 | 1.0 | 9.0 | 0.00 | 0.00 | 0.00 | 57 | 1014.9 |
| 20260504183044 | 84 | 79 | 2.0 | 9.0 | 0.00 | 0.00 | 0.00 | 54 | 1014.9 |
| 20260504182548 | 84 | 171 | 2.0 | 8.0 | 0.00 | 0.00 | 0.00 | 55 | 1015.0 |
| 20260504182044 | 84 | 107 | 1.0 | 8.0 | 0.00 | 0.00 | 0.00 | 56 | 1015.2 |
| 20260504181544 | 84 | 146 | 1.0 | 4.0 | 0.00 | 0.00 | 0.00 | 58 | 1015.2 |
| 20260504181042 | 84 | 146 | 1.0 | 7.0 | 0.00 | 0.00 | 0.00 | 56 | 1015.3 |
| 20260504180544 | 84 | 211 | 2.0 | 9.0 | 0.00 | 0.00 | 0.00 | 54 | 1015.4 |
| 20260504180044 | 83 | 142 | 1.0 | 9.0 | 0.00 | 0.00 | 0.00 | 56 | 1015.4 |
| 20260504175541 | 83 | 146 | 2.0 | 9.0 | 0.00 | 0.00 | 0.00 | 56 | 1015.3 |
| 20260504175043 | 83 | 106 | 1.0 | 9.0 | 0.00 | 0.00 | 0.00 | 55 | 1015.4 |
| 20260504174541 | 83 | 67 | 3.0 | 9.0 | 0.00 | 0.00 | 0.00 | 55 | 1015.6 |
| 20260504174040 | 83 | 86 | 1.0 | 5.0 | 0.00 | 0.00 | 0.00 | 56 | 1015.7 |
| 20260504173541 | 83 | 207 | 1.0 | 7.0 | 0.00 | 0.00 | 0.00 | 57 | 1015.6 |
| 20260504173048 | 83 | 148 | 3.0 | 12.0 | 0.00 | 0.00 | 0.00 | 57 | 1015.7 |
| 20260504172539 | 83 | 130 | 3.0 | 8.0 | 0.00 | 0.00 | 0.00 | 56 | 1015.8 |
| 20260504172038 | 83 | 59 | 1.0 | 8.0 | 0.00 | 0.00 | 0.00 | 56 | 1015.8 |
| 20260504171538 | 83 | 232 | 1.0 | 8.0 | 0.00 | 0.00 | 0.00 | 56 | 1015.9 |
| 20260504171038 | 83 | 143 | 1.0 | 9.0 | 0.00 | 0.00 | 0.00 | 55 | 1016.0 |
| 20260504170537 | 83 | 57 | 2.0 | 9.0 | 0.00 | 0.00 | 0.00 | 56 | 1016.1 |
| 20260504151015 | 78 | 85 | 3.0 | 8.0 | 0.00 | 0.00 | 0.00 | 63 | 1016.7 |
| 20260504150511 | 78 | 215 | 1.0 | 7.0 | 0.00 | 0.00 | 0.00 | 66 | 1016.7 |
| 20260504141055 | 75 | 71 | 3.0 | 8.0 | 0.00 | 0.00 | 0.00 | 73 | 1016.4 |
| 20260504140555 | 75 | 70 | 1.0 | 7.0 | 0.00 | 0.00 | 0.00 | 75 | 1016.4 |
| 20260504140106 | 75 | 24 | 1.0 | 7.0 | 0.00 | 0.00 | 0.00 | 75 | 1016.4 |
| 20260504130536 | 69 | 149 | 2.0 | 12.0 | 0.00 | 0.00 | 0.00 | 82 | 1016.0 |
| 20260504110513 | 65 | 302 | 0.0 | 1.0 | 0.00 | 0.00 | 0.00 | 87 | 1015.7 |
| 20260504100510 | 65 | 305 | 0.0 | 0.0 | 0.00 | 0.00 | 0.00 | 87 | 1015.0 |
| 20260504082005 | 66 | 133 | 0.0 | 1.0 | 0.00 | 0.00 | 0.00 | 87 | 1015.0 |
| 20260504081506 | 66 | 133 | 0.0 | 1.0 | 0.00 | 0.00 | 0.00 | 87 | 1015.0 |
| 20260504081005 | 66 | 133 | 0.0 | 2.0 | 0.00 | 0.00 | 0.00 | 87 | 1014.9 |
| 20260504080505 | 66 | 132 | 0.0 | 2.0 | 0.00 | 0.00 | 0.00 | 88 | 1014.9 |